| time (UTC) | temp F | wind direction | speed MPH | gust MPH | rain 1hr in | rain 24hr in | rain mn in | humidity % | barometer mb |
| 20260502194618 | 69 | 194 | 7.0 | 14.0 | 0.00 | 0.00 | 0.00 | 19 | 1018.3 |
| 20260502193647 | 69 | 184 | 10.0 | 14.0 | 0.00 | 0.00 | 0.00 | 20 | 1018.5 |
| 20260502192632 | 68 | 185 | 7.0 | 13.0 | 0.00 | 0.00 | 0.00 | 22 | 1018.5 |
| 20260502191618 | 68 | 200 | 8.0 | 13.0 | 0.00 | 0.00 | 0.00 | 22 | 1018.7 |
| 20260502190649 | 69 | 111 | 5.0 | 14.0 | 0.00 | 0.00 | 0.00 | 22 | 1018.8 |
| 20260502185628 | 69 | 182 | 7.0 | 12.0 | 0.00 | 0.00 | 0.00 | 22 | 1018.9 |
| 20260502184635 | 68 | 188 | 7.0 | 13.0 | 0.00 | 0.00 | 0.00 | 23 | 1018.9 |
| 20260502183622 | 68 | 235 | 7.0 | 11.0 | 0.00 | 0.00 | 0.00 | 22 | 1019.1 |
| 20260502182630 | 67 | 178 | 5.0 | 13.0 | 0.00 | 0.00 | 0.00 | 23 | 1019.2 |
| 20260502181622 | 67 | 234 | 7.0 | 12.0 | 0.00 | 0.00 | 0.00 | 22 | 1019.3 |
| 20260502180638 | 67 | 232 | 6.0 | 11.0 | 0.00 | 0.00 | 0.00 | 24 | 1019.3 |
| 20260502163644 | 64 | 207 | 6.0 | 11.0 | 0.00 | 0.00 | 0.00 | 28 | 1019.5 |
| 20260502162628 | 63 | 216 | 1.0 | 5.0 | 0.00 | 0.00 | 0.00 | 31 | 1019.5 |
| 20260502161616 | 62 | 171 | 2.0 | 4.0 | 0.00 | 0.00 | 0.00 | 31 | 1019.6 |
| 20260502160628 | 62 | 194 | 1.0 | 5.0 | 0.00 | 0.00 | 0.00 | 32 | 1019.7 |
| 20260502151617 | 54 | 5 | 0.0 | 1.0 | 0.00 | 0.00 | 0.00 | 41 | 1019.8 |
| 20260502150627 | 51 | 5 | 0.0 | 2.0 | 0.00 | 0.00 | 0.00 | 46 | 1019.8 |
| 20260502130615 | 32 | 45 | 1.0 | 5.0 | 0.00 | 0.00 | 0.00 | 71 | 1019.3 |
| 20260502123652 | 29 | 37 | 0.0 | 1.0 | 0.00 | 0.00 | 0.00 | 71 | 1019.2 |
| 20260502122617 | 29 | 37 | 1.0 | 4.0 | 0.00 | 0.00 | 0.00 | 70 | 1019.1 |
| 20260502121624 | 30 | 37 | 3.0 | 5.0 | 0.00 | 0.00 | 0.00 | 68 | 1019.1 |
| 20260502120616 | 31 | 33 | 1.0 | 5.0 | 0.00 | 0.00 | 0.00 | 67 | 1019.2 |
| 20260502115638 | 33 | 26 | 1.0 | 5.0 | 0.00 | 0.00 | 0.00 | 67 | 1019.1 |
| 20260502114625 | 33 | 44 | 2.0 | 5.0 | 0.00 | 0.00 | 0.00 | 68 | 1019.1 |
| 20260502113613 | 33 | 11 | 3.0 | 4.0 | 0.00 | 0.00 | 0.00 | 69 | 1019.3 |
| 20260502112619 | 33 | 11 | 0.0 | 2.0 | 0.00 | 0.00 | 0.00 | 68 | 1019.3 |
| 20260502111630 | 33 | 11 | 2.0 | 4.0 | 0.00 | 0.00 | 0.00 | 69 | 1019.4 |
| 20260502110617 | 33 | 60 | 1.0 | 5.0 | 0.00 | 0.00 | 0.00 | 68 | 1019.3 |
| 20260502105618 | 33 | 28 | 3.0 | 6.0 | 0.00 | 0.00 | 0.00 | 69 | 1019.4 |
| 20260502104626 | 33 | 46 | 4.0 | 5.0 | 0.00 | 0.00 | 0.00 | 68 | 1019.4 |
| 20260502103618 | 33 | 46 | 3.0 | 5.0 | 0.00 | 0.00 | 0.00 | 68 | 1019.4 |
| 20260502102625 | 33 | 350 | 2.0 | 4.0 | 0.00 | 0.00 | 0.00 | 69 | 1019.4 |
| 20260502101613 | 32 | 50 | 2.0 | 4.0 | 0.00 | 0.00 | 0.00 | 67 | 1019.4 |
| 20260502100621 | 33 | 50 | 1.0 | 5.0 | 0.00 | 0.00 | 0.00 | 65 | 1019.4 |
| 20260502090631 | 38 | 338 | 1.0 | 3.0 | 0.00 | 0.00 | 0.00 | 58 | 1019.3 |
| 20260502070649 | 42 | 47 | 1.0 | 5.0 | 0.00 | 0.00 | 0.00 | 52 | 1019.3 |
| 20260502065647 | 42 | 46 | 2.0 | 5.0 | 0.00 | 0.00 | 0.00 | 52 | 1019.3 |
| 20260502064631 | 43 | 46 | 1.0 | 3.0 | 0.00 | 0.00 | 0.00 | 50 | 1019.3 |
| 20260502063617 | 44 | 46 | 3.0 | 5.0 | 0.00 | 0.00 | 0.00 | 49 | 1019.2 |
| 20260502062625 | 43 | 46 | 2.0 | 5.0 | 0.00 | 0.00 | 0.00 | 48 | 1019.3 |
| 20260502061638 | 43 | 46 | 1.0 | 5.0 | 0.00 | 0.00 | 0.00 | 48 | 1019.3 |
| 20260502060647 | 42 | 46 | 2.0 | 5.0 | 0.00 | 0.00 | 0.00 | 47 | 1019.3 |
| 20260502055627 | 42 | 46 | 1.0 | 3.0 | 0.00 | 0.00 | 0.00 | 46 | 1019.2 |
| 20260502054615 | 43 | 46 | 1.0 | 4.0 | 0.00 | 0.00 | 0.00 | 44 | 1019.2 |
| 20260502053623 | 43 | 339 | 2.0 | 3.0 | 0.00 | 0.00 | 0.00 | 44 | 1019.1 |
| 20260502052615 | 43 | 339 | 1.0 | 3.0 | 0.00 | 0.00 | 0.00 | 44 | 1019.1 |
| 20260502051622 | 45 | 339 | 1.0 | 2.0 | 0.00 | 0.00 | 0.00 | 42 | 1019.1 |
| 20260502050628 | 46 | 339 | 0.0 | 2.0 | 0.00 | 0.00 | 0.00 | 41 | 1019.1 |
| 20260502045626 | 46 | 339 | 1.0 | 2.0 | 0.00 | 0.00 | 0.00 | 41 | 1019.0 |
| 20260502044615 | 47 | 339 | 0.0 | 1.0 | 0.00 | 0.00 | 0.00 | 40 | 1019.1 |
| 20260502043642 | 48 | 339 | 0.0 | 1.0 | 0.00 | 0.00 | 0.00 | 39 | 1019.1 |
| 20260502042627 | 49 | 339 | 0.0 | 5.0 | 0.00 | 0.00 | 0.00 | 37 | 1019.0 |
| 20260502041615 | 50 | 86 | 2.0 | 4.0 | 0.00 | 0.00 | 0.00 | 36 | 1019.0 |
| 20260502040622 | 51 | 107 | 1.0 | 2.0 | 0.00 | 0.00 | 0.00 | 34 | 1018.9 |
| 20260502035623 | 52 | 113 | 0.0 | 3.0 | 0.00 | 0.00 | 0.00 | 34 | 1019.0 |
| 20260502034630 | 52 | 111 | 2.0 | 4.0 | 0.00 | 0.00 | 0.00 | 34 | 1018.8 |
| 20260502033617 | 54 | 40 | 3.0 | 5.0 | 0.00 | 0.00 | 0.00 | 32 | 1018.6 |
| 20260502032625 | 54 | 33 | 3.0 | 5.0 | 0.00 | 0.00 | 0.00 | 32 | 1018.6 |
| 20260502031638 | 56 | 78 | 2.0 | 4.0 | 0.00 | 0.00 | 0.00 | 28 | 1018.1 |
| 20260502030626 | 58 | 160 | 2.0 | 6.0 | 0.00 | 0.00 | 0.00 | 29 | 1017.9 |
| 20260502025644 | 58 | 194 | 3.0 | 5.0 | 0.00 | 0.00 | 0.00 | 29 | 1017.6 |
| 20260502024630 | 60 | 231 | 2.0 | 5.0 | 0.00 | 0.00 | 0.00 | 29 | 1017.6 |
| 20260502023621 | 61 | 179 | 2.0 | 6.0 | 0.00 | 0.00 | 0.00 | 25 | 1017.4 |
| 20260502022628 | 62 | 192 | 4.0 | 6.0 | 0.00 | 0.00 | 0.00 | 25 | 1017.4 |
| 20260502021615 | 64 | 170 | 3.0 | 7.0 | 0.00 | 0.00 | 0.00 | 24 | 1017.4 |
| 20260502020624 | 65 | 132 | 1.0 | 5.0 | 0.00 | 0.00 | 0.00 | 21 | 1017.2 |
| 20260502015627 | 66 | 128 | 2.0 | 6.0 | 0.00 | 0.00 | 0.00 | 21 | 1017.1 |
| 20260502014617 | 66 | 146 | 3.0 | 7.0 | 0.00 | 0.00 | 0.00 | 20 | 1017.1 |
| 20260502013628 | 67 | 115 | 4.0 | 8.0 | 0.00 | 0.00 | 0.00 | 19 | 1017.0 |
| 20260502012618 | 67 | 123 | 4.0 | 7.0 | 0.00 | 0.00 | 0.00 | 19 | 1017.0 |
| 20260502011630 | 67 | 143 | 3.0 | 6.0 | 0.00 | 0.00 | 0.00 | 19 | 1016.9 |
| 20260502010617 | 67 | 85 | 3.0 | 7.0 | 0.00 | 0.00 | 0.00 | 19 | 1017.0 |
| 20260502005614 | 67 | 119 | 1.0 | 4.0 | 0.00 | 0.00 | 0.00 | 18 | 1017.0 |
| 20260502004623 | 67 | 92 | 2.0 | 6.0 | 0.00 | 0.00 | 0.00 | 19 | 1016.9 |
| 20260502003613 | 67 | 55 | 2.0 | 4.0 | 0.00 | 0.00 | 0.00 | 18 | 1017.0 |
| 20260502002623 | 67 | 5 | 3.0 | 5.0 | 0.00 | 0.00 | 0.00 | 19 | 1017.1 |
| 20260502001615 | 67 | 30 | 1.0 | 8.0 | 0.00 | 0.00 | 0.00 | 18 | 1017.2 |
| 20260502000621 | 67 | 29 | 2.0 | 6.0 | 0.00 | 0.00 | 0.00 | 18 | 1017.2 |
| 20260501235645 | 67 | 54 | 1.0 | 5.0 | 0.00 | 0.00 | 0.00 | 18 | 1017.2 |
| 20260501234613 | 68 | 79 | 3.0 | 8.0 | 0.00 | 0.00 | 0.00 | 18 | 1017.3 |
| 20260501233622 | 68 | 75 | 2.0 | 5.0 | 0.00 | 0.00 | 0.00 | 17 | 1017.3 |
| 20260501232612 | 68 | 348 | 4.0 | 8.0 | 0.00 | 0.00 | 0.00 | 18 | 1017.4 |
| 20260501231626 | 69 | 355 | 3.0 | 8.0 | 0.00 | 0.00 | 0.00 | 17 | 1017.4 |
| 20260501230614 | 69 | 59 | 2.0 | 8.0 | 0.00 | 0.00 | 0.00 | 17 | 1017.5 |
| 20260501225614 | 68 | 323 | 2.0 | 8.0 | 0.00 | 0.00 | 0.00 | 17 | 1017.6 |
| 20260501224622 | 68 | 319 | 2.0 | 5.0 | 0.00 | 0.00 | 0.00 | 18 | 1017.7 |
| 20260501223613 | 68 | 294 | 4.0 | 11.0 | 0.00 | 0.00 | 0.00 | 16 | 1017.7 |
| 20260501222620 | 68 | 309 | 2.0 | 11.0 | 0.00 | 0.00 | 0.00 | 17 | 1018.0 |
| 20260501221626 | 67 | 121 | 3.0 | 6.0 | 0.00 | 0.00 | 0.00 | 17 | 1018.0 |
| 20260501220617 | 68 | 329 | 4.0 | 8.0 | 0.00 | 0.00 | 0.00 | 17 | 1018.3 |
| 20260501215619 | 68 | 355 | 0.0 | 8.0 | 0.00 | 0.00 | 0.00 | 16 | 1018.3 |
| 20260501214626 | 67 | 256 | 3.0 | 10.0 | 0.00 | 0.00 | 0.00 | 17 | 1018.6 |
| 20260501213615 | 67 | 280 | 4.0 | 7.0 | 0.00 | 0.00 | 0.00 | 18 | 1018.6 |
| 20260501212627 | 66 | 269 | 2.0 | 5.0 | 0.00 | 0.00 | 0.00 | 19 | 1018.7 |
| 20260501211636 | 66 | 329 | 4.0 | 14.0 | 0.00 | 0.00 | 0.00 | 19 | 1018.9 |
| 20260501210621 | 66 | 19 | 5.0 | 9.0 | 0.00 | 0.00 | 0.00 | 19 | 1018.9 |
| 20260501205620 | 66 | 309 | 3.0 | 7.0 | 0.00 | 0.00 | 0.00 | 19 | 1018.9 |
| 20260501204627 | 65 | 355 | 3.0 | 8.0 | 0.00 | 0.00 | 0.00 | 19 | 1019.0 |
| 20260501203619 | 65 | 329 | 3.0 | 8.0 | 0.00 | 0.00 | 0.00 | 18 | 1019.1 |
| 20260501202627 | 65 | 163 | 3.0 | 10.0 | 0.00 | 0.00 | 0.00 | 18 | 1019.2 |
| 20260501201615 | 64 | 355 | 4.0 | 7.0 | 0.00 | 0.00 | 0.00 | 18 | 1019.1 |
| 20260501200625 | 64 | 37 | 3.0 | 8.0 | 0.00 | 0.00 | 0.00 | 20 | 1019.2 |
| 20260501195623 | 63 | 188 | 4.0 | 6.0 | 0.00 | 0.00 | 0.00 | 20 | 1019.4 |